Location: Albuquerque Trailhead
(34.7934°N, 106.3736°W)
Time: 00:21:59
(UTC+00:00)

Cosmos 1400 Rocket - Pass Details

Date: 20 June 2021
Orbit: 521 x 566 km, 81.2° (Epoch: 01 August)

Event Time Altitude Azimuth Distance (km) Brightness Sun altitude
Rises 03:11:32 0° 343° (NNW) 2,654 7.3 -9.3°
Reaches altitude 10° 03:13:46 10° 335° (NNW) 1,761 6.5 -9.7°
Maximum altitude 03:17:22 39° 266° (W) 791 4.1 -10.3°
Drops below altitude 10° 03:20:59 10° 197° (SSW) 1,755 5.2 -10.9°
Sets 03:23:12 0° 189° (S) 2,643 6.0 -11.2°
